Погода в Мировке

Украина / Киевская область     49°55′53″N   30°37′18″E
темп.,
°C
ветер,
м/с
пор.,
м/с
влажн.,
%
обл.,
%
осадки,
мм/ч
давл.,
гПа
погр.,
м
22 января, сб
сб2223:00−3зюз71591100 0.1 1006818
02:00−3з6139497 0.4 1006666
05:00−3зсз51194100 0.4 1007747
08:00−4з61188100 0.6 1008528
11:00−3з698490 0.0 1010650
14:00−3з588699 0.1 1010702
17:00−4зюз3796100 0.2 1011250
20:00−5ссз489214 0.8 1014410
23 января, вс
вс2323:00−7зсз389674 0.0 1015202
02:00−6зсз369586 0.1 1016294
05:00−7з2297100 0.1 101662
08:00−6с349599 0.9 1018307
11:00−5св4691100 0.4 1020450
14:00−5св568394 0.6 1022637
17:00−8ссв499483 0.0 1026266
20:00−8ссв499589 0.2 1029279
24 января, пн
пн2423:00−9ссв489697 0.1 1030260
02:00−10с5119794 0.1 1031262
05:00−10с5119585 0.0 1032276
08:00−10с6149383 0.0 1033382
11:00−7с71488100 0.0 1032475
14:00−6с71484100 0.0 1030583
17:00−6с71395100 0.9 1030649
20:00−7с61195100 1.9 1030512
25 января, вт
вт2523:00−8с4996100 0.2 1030290
02:00−9ссз4897100 0.3 1029257
05:00−11ссз3898100 0.0 1028191
08:00−11сз3897100 0.1 1028240
11:00−8ссз579099 0.1 1027333
14:00−7сз468561 0.1 1025405
17:00−10з349443 0.0 102354
20:00−13зюз249616 0.0 102348
26 января, ср
ср2623:00−11юз3592100 0.0 102073
02:00−7юз3596100 0.4 1018177
05:00−6зюз3696100 0.5 1016176
08:00−6зсз3996100 0.9 1016275
11:00−3ссз51195100 0.4 1017881
14:00−3сз71092100 0.6 1018726
17:00−6сз61192100 0.1 1019500
20:00−8сз5119388 0.1 1020331